Wind_Speed
2 2 2 3 3 3 3 3 3 3 3 3 3 3 4 3 4 4 5 6 7 7 7 8 8 8 9 10 10 10 10 10 10 10 10 9 9 9 9 9 9 9 8 8 8 8 8 8 7
2 2 2 3 3 3 3 2 2 2 2 2 2 2 3 3 2 3 4 6 6 6 7 7 8 8 9 10 10 11 12 12 11 11 11 11 11 10 10 10 11 11 10 9 9 9 9 9 8
2 3 3 3 3 3 2 2 2 2 2 2 1 1 1 2 1 2 3 4 5 6 7 7 8 9 9 10 11 12 13 13 13 12 12 12 12 11 11 11 12 12 12 11 10 10 10 10 9
3 3 4 4 3 3 2 2 2 2 3 2 1 1 1 1 2 2 3 4 4 5 6 7 7 8 9 10 11 12 13 13 13 13 12 12 12 12 11 11 12 12 12 12 12 12 11 10 10
3 4 4 4 3 2 2 2 2 1 2 2 2 2 1 1 1 2 2 3 4 5 5 6 7 7 7 8 9 10 11 13 13 13 13 13 13 12 11 12 12 12 12 12 12 11 11 10 10
3 4 3 3 2 1 2 2 2 2 1 1 1 1 1 1 1 1 2 3 3 4 4 5 6 6 7 7 8 8 10 11 12 12 12 12 13 12 12 12 12 12 12 12 12 12 12 11 11
3 3 3 3 2 2 3 2 2 2 2 2 1 1 1 1 1 2 2 3 3 3 3 4 5 6 6 6 7 7 8 9 11 11 11 12 12 12 12 12 12 12 12 12 12 12 12 12 11
3 3 2 2 1 2 3 3 3 2 2 1 1 2 2 2 2 2 2 3 3 3 3 4 4 5 5 5 6 6 7 8 10 10 11 12 13 13 12 13 12 12 12 12 12 12 12 12 11
3 3 2 2 1 2 2 3 3 3 3 2 2 2 2 2 2 2 2 2 3 3 3 4 4 4 4 4 5 5 6 7 8 9 10 10 11 12 12 12 12 13 12 12 13 12 12 12 11
3 3 3 2 2 2 2 3 3 3 3 3 3 3 3 3 2 2 2 2 2 3 3 3 4 3 3 4 4 5 5 7 7 8 8 9 10 11 11 11 11 12 12 12 12 13 13 13 12
3 3 2 2 2 2 2 3 3 3 2 3 3 3 3 3 3 3 3 2 3 3 3 4 4 4 4 4 4 5 5 6 6 7 8 8 9 10 10 10 10 10 11 11 12 12 13 13 13
3 3 2 2 1 2 3 3 4 4 4 3 3 3 3 3 3 3 3 3 3 3 3 4 4 4 4 4 4 5 5 5 6 6 7 8 8 9 9 10 10 10 10 11 11 12 12 12 13
4 3 3 3 2 2 3 4 4 4 4 4 3 3 3 3 3 3 3 3 3 3 3 4 4 4 4 4 4 5 6 6 6 6 7 8 8 8 9 9 10 10 11 11 11 12 12 13 13
5 5 4 4 4 3 3 4 4 4 4 4 3 3 3 3 3 3 3 3 3 4 3 3 4 4 4 4 4 4 5 5 5 6 7 7 8 8 8 9 9 10 10 10 11 12 12 13 13
5 5 5 5 4 3 4 4 4 4 4 4 3 3 3 3 3 3 3 3 4 4 4 4 4 4 4 4 4 4 4 5 5 5 6 6 7 7 8 8 9 9 9 10 11 12 12 12 12
7 6 6 5 5 4 4 4 4 4 4 4 4 4 4 4 4 4 3 4 4 5 5 4 4 4 4 4 4 4 4 4 5 5 6 6 7 7 7 8 8 8 9 10 10 11 11 12 12
7 7 6 6 6 5 5 4 4 4 5 5 4 5 5 4 4 4 4 4 4 4 4 4 5 5 5 5 5 5 5 5 5 5 6 6 6 7 7 7 8 8 9 9 10 11 11 11 12
7 6 6 6 6 6 6 5 5 4 5 4 4 4 4 5 4 4 5 5 4 4 4 4 5 5 5 5 5 5 6 6 6 6 6 7 7 7 7 7 7 8 8 9 10 11 11 11 11
7 7 6 6 7 7 6 5 5 5 6 4 4 4 4 5 5 5 5 5 5 5 5 5 5 6 6 6 6 6 7 7 6 7 7 7 7 8 7 7 8 8 8 9 10 10 10 10 11
8 8 7 7 7 7 7 6 6 6 6 5 4 4 5 6 6 6 5 6 6 6 6 6 6 6 6 6 7 7 7 7 7 7 7 8 8 8 9 8 9 9 9 9 9 10 10 11 11
7 8 8 8 8 8 8 7 7 6 6 6 5 5 6 6 7 6 6 6 7 7 7 7 7 7 7 7 7 7 6 6 7 7 8 8 9 10 9 10 10 10 10 10 10 10 10 11 12
7 7 8 8 8 8 9 9 8 7 7 6 6 7 7 7 7 8 7 7 7 7 8 8 8 8 8 8 8 8 7 7 7 8 9 9 10 10 10 10 10 10 10 11 11 11 11 11 12
7 7 9 9 9 9 9 9 8 8 8 7 8 8 8 8 8 9 9 9 8 9 9 9 9 8 9 9 8 8 8 8 8 9 9 10 10 11 11 11 11 11 11 11 11 11 12 12 12
9 9 9 10 11 11 10 10 9 8 8 8 8 9 9 9 9 9 10 10 10 10 10 10 10 10 10 9 9 9 9 9 9 10 10 10 11 11 11 11 12 12 12 11 12 12 13 13 13
10 10 11 11 11 11 11 12 10 9 9 10 10 10 11 11 10 10 11 12 12 11 11 11 11 11 11 10 10 10 10 10 10 11 11 11 11 11 11 11 12 12 12 12 13 13 13 14 14
12 12 13 12 12 12 12 12 11 11 10 11 12 12 12 12 11 11 12 13 13 12 12 12 12 12 12 11 11 11 12 11 11 11 11 12 12 12 12 12 12 12 12 13 14 14 15 15 15
13 13 14 14 13 14 13 13 12 12 12 12 13 13 13 13 12 12 13 14 14 14 13 13 14 14 13 13 13 13 13 13 13 13 12 12 12 12 13 13 13 13 13 14 15 16 16 16 16
15 15 15 15 16 16 15 15 15 14 14 14 15 14 14 14 14 14 14 15 15 15 15 15 15 15 15 14 14 14 14 14 14 14 14 14 14 14 14 14 14 14 15 15 16 16 16 17 17
16 16 17 18 18 17 17 16 15 15 16 16 15 15 16 16 16 16 16 16 16 15 16 17 17 17 16 16 16 16 16 16 16 16 16 15 15 15 15 15 15 16 16 17 17 17 17 18 18
16 17 18 19 19 19 19 17 16 17 17 17 17 17 18 18 17 17 17 17 17 17 17 17 18 18 18 19 19 18 18 18 18 17 17 17 17 17 17 16 16 17 17 17 17 18 18 19 19
Wind_Direction
297 318 332 323 309 293 284 279 280 283 285 287 278 275 274 265 250 238 234 235 236 237 237 240 243 246 245 243 244 245 244 244 242 239 238 238 238 237 235 234 234 235 236 236 231 228 224 221 222
294 310 328 318 314 304 288 294 296 294 300 298 285 266 265 261 250 240 241 243 240 243 245 247 247 248 247 246 246 247 245 244 242 239 239 241 241 240 235 234 235 237 237 238 236 233 232 228 227
291 300 306 304 305 307 310 322 322 316 319 328 329 277 266 270 260 245 249 255 248 244 248 251 252 251 250 251 250 248 244 243 242 241 241 242 241 241 239 237 237 237 237 238 240 238 237 234 232
295 294 294 300 308 316 322 339 341 344 333 339 346 330 282 267 260 255 252 259 254 248 248 250 253 253 252 251 250 248 245 243 242 241 241 242 240 240 241 241 240 242 242 243 244 243 241 241 240
295 292 293 302 315 319 344 347 349 360 341 345 344 341 309 280 273 266 262 267 260 252 251 254 258 258 254 249 250 248 245 242 240 239 241 242 244 244 241 241 243 245 244 245 243 241 243 243 242
291 289 291 305 317 344 12 10 6 9 22 17 353 329 314 299 289 280 275 272 272 265 261 264 263 264 260 253 251 248 243 240 238 237 239 240 241 243 242 241 244 245 245 246 244 244 244 243 242
280 283 292 306 332 14 32 31 27 13 30 40 11 340 326 321 306 289 278 275 273 272 269 269 266 267 267 258 251 248 244 240 238 237 237 240 240 241 243 242 243 245 246 245 243 242 242 244 243
262 274 287 298 338 11 27 23 26 21 19 29 6 350 332 324 315 308 290 277 271 270 270 269 269 272 273 264 251 246 244 241 239 239 238 240 241 241 244 244 243 244 246 244 242 241 242 246 245
257 267 272 293 332 13 21 15 18 18 19 17 359 338 332 324 320 314 301 284 273 272 271 266 270 269 272 268 260 252 245 242 240 240 239 239 240 241 243 245 245 243 242 243 242 241 243 245 247
251 260 269 291 316 0 19 11 16 17 22 6 350 341 339 331 321 316 306 286 269 268 269 268 274 274 268 270 270 264 254 246 243 240 237 238 236 238 241 245 246 245 241 242 242 242 243 246 250
249 266 286 282 304 331 354 2 3 0 3 353 339 336 336 336 328 323 306 288 273 268 271 271 273 277 276 277 274 267 259 251 246 237 233 236 237 238 242 247 247 245 240 242 244 247 247 250 252
261 266 282 289 300 312 329 341 338 337 342 338 337 333 328 336 329 315 301 288 281 271 269 274 276 280 282 281 273 265 258 251 249 245 242 242 242 243 246 248 248 246 245 246 245 249 251 252 253
254 258 270 284 282 298 315 324 326 326 333 337 333 331 328 325 320 309 298 292 288 278 270 275 278 278 284 286 278 267 261 258 252 246 243 241 241 243 246 245 247 247 249 251 251 253 253 254 256
255 254 254 267 279 288 292 306 315 322 325 335 338 334 333 327 320 308 296 293 286 279 276 274 277 280 282 284 282 274 265 263 257 252 249 243 243 246 247 245 245 245 248 251 255 256 254 255 257
257 257 258 258 263 277 284 290 299 310 320 328 327 326 326 322 318 313 306 298 296 285 279 281 279 276 276 281 283 277 268 262 257 255 250 246 248 250 249 249 251 251 251 253 257 257 257 257 258
259 257 259 257 257 267 283 289 296 304 311 317 317 316 321 320 314 311 314 302 294 288 284 285 286 287 284 286 283 272 272 266 260 258 253 249 251 252 250 253 256 257 256 257 260 258 259 259 259
257 255 256 253 260 264 271 275 281 293 302 302 305 306 313 318 314 310 307 301 292 288 285 285 286 288 285 282 282 276 280 277 272 266 258 253 253 256 254 256 258 260 260 259 260 257 260 258 259
255 257 257 254 258 261 261 266 269 279 295 293 295 297 304 308 312 307 302 303 299 295 290 289 288 287 283 280 281 278 277 277 274 270 264 260 258 257 259 259 263 266 263 261 261 261 262 258 259
256 258 254 252 253 259 262 263 266 272 284 287 288 292 292 298 303 304 301 299 298 299 298 294 291 287 284 285 286 284 280 273 269 267 265 262 259 259 259 262 267 269 268 266 264 264 265 263 260
262 262 260 254 254 256 265 268 267 269 280 285 288 292 292 292 290 295 294 291 293 298 299 297 295 291 286 289 289 286 282 275 271 266 264 262 259 259 260 264 269 272 271 268 267 268 266 265 265
266 263 263 262 259 264 268 269 265 267 277 282 284 292 295 287 285 288 288 285 288 293 294 296 295 293 291 292 289 282 277 275 273 268 265 263 261 263 263 265 270 273 272 270 268 269 268 267 268
260 263 267 269 264 264 268 268 264 269 273 279 286 287 291 287 285 286 285 284 288 293 294 293 293 294 292 290 287 280 275 271 271 269 266 263 263 265 265 269 272 272 271 270 268 267 266 269 270
262 262 267 270 271 269 266 270 263 267 270 280 289 290 290 289 286 283 283 284 285 287 289 291 291 293 289 285 281 278 275 271 268 268 267 264 264 267 268 271 271 271 271 269 267 267 268 270 272
265 264 264 268 267 265 264 267 265 267 272 277 286 292 291 286 285 283 280 282 284 286 287 287 286 287 284 280 277 274 273 270 269 268 268 267 267 266 269 270 270 269 269 269 270 269 271 273 273
261 261 263 265 265 263 263 267 272 272 275 277 280 285 287 285 282 280 280 283 285 285 285 283 281 283 280 277 277 275 273 270 270 270 268 268 267 265 267 269 269 269 269 269 271 272 273 274 273
261 263 263 264 263 261 265 271 274 278 278 277 280 281 282 281 279 279 279 279 280 281 281 280 279 280 279 277 276 276 275 272 270 272 271 269 266 264 265 267 270 272 270 271 271 271 272 273 272
264 263 264 267 269 266 267 271 273 278 278 279 282 281 279 277 276 277 278 277 278 277 277 276 280 278 277 275 274 274 275 272 271 272 271 268 265 266 269 270 271 272 272 273 272 272 273 271 271
261 264 262 263 268 267 266 268 271 276 275 277 279 278 277 277 275 275 276 276 275 275 274 273 277 278 275 275 274 273 271 272 271 272 270 268 266 267 270 272 272 273 273 273 274 274 273 272 272
262 265 266 267 267 269 268 270 273 274 272 276 277 277 275 274 274 271 273 273 273 274 275 273 274 276 275 274 273 272 271 272 271 270 269 269 269 268 270 273 273 273 274 274 274 274 273 273 272
263 263 263 266 267 268 270 273 276 277 276 276 276 278 274 272 268 267 268 270 272 274 274 273 274 274 275 274 274 273 273 272 270 268 269 269 269 268 270 273 275 276 275 273 274 275 274 273 272
Height
5869 5869 5869 5869 5869 5868 5867 5867 5866 5866 5866 5865 5865 5865 5865 5865 5866 5868 5866 5865 5865 5866 5866 5867 5867 5867 5868 5869 5869 5870 5870 5871 5872 5872 5873 5874 5874 5875 5876 5877 5877 5878 5878 5879 5879 5880 5880 5881 5881
5869 5869 5869 5869 5868 5867 5867 5866 5865 5865 5865 5864 5864 5864 5864 5863 5864 5864 5863 5863 5864 5864 5865 5865 5866 5866 5866 5867 5867 5868 5868 5869 5870 5871 5872 5872 5873 5874 5874 5875 5876 5877 5877 5877 5878 5879 5879 5880 5880
5868 5868 5869 5868 5867 5867 5867 5865 5865 5864 5864 5864 5864 5863 5863 5863 5863 5863 5863 5862 5862 5863 5863 5864 5864 5864 5864 5865 5865 5865 5865 5866 5867 5869 5870 5870 5871 5872 5873 5874 5874 5875 5876 5876 5877 5877 5878 5878 5879
5868 5869 5869 5868 5867 5866 5865 5865 5864 5863 5863 5863 5863 5863 5862 5862 5862 5862 5862 5861 5861 5861 5862 5862 5862 5862 5863 5863 5862 5862 5862 5863 5865 5866 5868 5869 5870 5870 5871 5872 5873 5873 5874 5874 5875 5876 5876 5877 5877
5868 5868 5868 5867 5866 5865 5865 5864 5863 5863 5863 5862 5862 5862 5861 5861 5861 5861 5860 5860 5860 5860 5860 5861 5861 5861 5860 5861 5860 5860 5860 5861 5862 5864 5866 5866 5867 5868 5869 5870 5871 5871 5872 5872 5873 5874 5874 5875 5875
5868 5867 5867 5866 5865 5864 5864 5863 5863 5862 5862 5862 5861 5861 5860 5860 5860 5860 5860 5859 5859 5859 5859 5859 5859 5859 5859 5859 5859 5859 5859 5859 5860 5862 5863 5864 5865 5866 5867 5868 5869 5869 5870 5870 5871 5872 5872 5873 5874
5868 5867 5866 5866 5865 5864 5863 5863 5862 5862 5862 5861 5861 5860 5860 5860 5859 5859 5858 5858 5858 5858 5858 5858 5858 5858 5858 5858 5858 5858 5858 5859 5860 5861 5862 5862 5863 5864 5865 5866 5867 5867 5868 5868 5869 5870 5871 5871 5872
5867 5867 5866 5865 5865 5864 5863 5862 5862 5861 5861 5861 5860 5860 5859 5859 5858 5858 5858 5857 5857 5857 5857 5857 5857 5857 5857 5857 5857 5857 5857 5857 5858 5859 5860 5860 5861 5862 5863 5864 5864 5865 5866 5866 5867 5868 5868 5869 5869
5866 5867 5865 5865 5864 5864 5863 5862 5862 5861 5861 5860 5859 5859 5859 5858 5857 5857 5857 5856 5856 5856 5856 5856 5856 5856 5856 5856 5856 5856 5856 5856 5857 5857 5858 5858 5859 5860 5861 5861 5862 5863 5863 5864 5865 5865 5866 5867 5868
5865 5865 5864 5864 5864 5863 5862 5862 5861 5861 5860 5859 5859 5858 5858 5857 5856 5856 5856 5856 5856 5856 5855 5855 5855 5855 5855 5855 5854 5854 5854 5855 5855 5856 5856 5857 5857 5858 5859 5859 5860 5860 5861 5862 5862 5863 5864 5865 5865
5864 5864 5863 5863 5862 5862 5861 5861 5860 5860 5860 5859 5858 5858 5857 5856 5855 5855 5855 5855 5855 5855 5854 5854 5854 5854 5853 5853 5853 5853 5853 5853 5854 5854 5854 5854 5855 5856 5856 5857 5857 5858 5859 5860 5860 5861 5861 5862 5863
5863 5863 5862 5862 5861 5861 5861 5860 5859 5859 5859 5858 5857 5857 5856 5855 5855 5854 5854 5854 5854 5854 5853 5853 5853 5852 5852 5852 5852 5852 5851 5852 5852 5852 5852 5853 5853 5854 5854 5855 5855 5856 5856 5857 5858 5858 5859 5859 5860
5862 5861 5861 5861 5860 5860 5859 5859 5858 5858 5857 5857 5856 5856 5855 5855 5854 5854 5853 5853 5853 5853 5852 5852 5852 5851 5851 5851 5850 5850 5850 5850 5850 5850 5851 5851 5851 5852 5852 5852 5853 5853 5854 5855 5855 5856 5856 5857 5857
5860 5860 5860 5859 5859 5858 5858 5858 5858 5857 5856 5856 5855 5855 5854 5854 5853 5853 5852 5852 5852 5851 5851 5851 5850 5850 5850 5849 5849 5848 5848 5848 5849 5849 5849 5849 5849 5850 5850 5850 5851 5851 5852 5852 5853 5853 5854 5854 5854
5859 5859 5859 5858 5857 5857 5857 5857 5856 5856 5855 5855 5854 5854 5853 5853 5852 5852 5851 5851 5851 5850 5850 5850 5849 5849 5848 5848 5847 5847 5847 5847 5847 5847 5847 5847 5847 5848 5848 5848 5848 5849 5849 5850 5850 5850 5851 5851 5851
5857 5857 5857 5857 5856 5856 5857 5856 5855 5854 5854 5853 5853 5853 5852 5852 5851 5851 5850 5850 5849 5849 5848 5848 5847 5847 5847 5846 5846 5845 5845 5845 5845 5845 5845 5845 5845 5846 5846 5846 5846 5847 5847 5847 5847 5847 5848 5848 5848
5855 5855 5855 5855 5854 5854 5854 5854 5854 5853 5852 5852 5852 5851 5851 5850 5850 5849 5849 5849 5848 5848 5847 5847 5846 5846 5845 5845 5844 5844 5844 5844 5843 5843 5843 5843 5843 5844 5844 5844 5844 5844 5844 5845 5845 5845 5845 5845 5846
5853 5853 5852 5852 5852 5852 5852 5852 5852 5851 5851 5851 5850 5850 5849 5849 5849 5848 5848 5847 5847 5846 5846 5845 5845 5844 5844 5843 5843 5843 5842 5842 5841 5841 5841 5841 5841 5842 5842 5842 5842 5842 5842 5842 5842 5843 5843 5843 5843
5851 5850 5850 5850 5850 5850 5850 5850 5850 5850 5849 5849 5849 5848 5848 5848 5847 5847 5846 5846 5845 5845 5844 5844 5843 5843 5842 5842 5841 5841 5840 5840 5840 5839 5839 5839 5839 5839 5840 5840 5840 5840 5840 5840 5840 5840 5840 5840 5840
5847 5847 5847 5848 5847 5847 5847 5848 5848 5848 5847 5847 5847 5847 5846 5846 5846 5845 5844 5844 5843 5843 5842 5842 5841 5841 5840 5840 5839 5839 5838 5838 5837 5837 5837 5837 5837 5837 5837 5837 5837 5837 5837 5837 5837 5837 5837 5837 5837
5845 5845 5845 5845 5845 5845 5845 5845 5846 5845 5845 5845 5845 5844 5844 5844 5843 5843 5842 5842 5841 5841 5840 5840 5839 5839 5838 5838 5837 5837 5836 5836 5835 5835 5835 5834 5834 5834 5834 5834 5834 5834 5834 5834 5834 5834 5834 5834 5834
5842 5842 5842 5842 5843 5843 5843 5843 5843 5843 5843 5843 5842 5842 5841 5841 5841 5841 5840 5839 5839 5839 5838 5837 5837 5836 5835 5835 5834 5834 5834 5834 5833 5833 5832 5832 5832 5831 5831 5831 5831 5831 5831 5831 5831 5831 5831 5831 5830
5840 5840 5840 5840 5840 5840 5840 5840 5841 5840 5840 5840 5839 5839 5839 5838 5838 5838 5837 5837 5836 5836 5835 5835 5834 5834 5833 5832 5832 5832 5831 5831 5830 5830 5830 5830 5829 5829 5828 5828 5828 5828 5828 5828 5828 5827 5827 5827 5827
5838 5838 5838 5837 5837 5837 5837 5837 5838 5838 5837 5837 5836 5836 5836 5835 5835 5834 5834 5833 5833 5833 5833 5832 5831 5831 5830 5830 5829 5829 5828 5828 5827 5827 5827 5826 5826 5826 5825 5825 5825 5824 5824 5824 5824 5824 5824 5823 5823
5835 5836 5836 5835 5834 5834 5834 5834 5835 5834 5833 5833 5832 5832 5832 5832 5831 5831 5831 5830 5830 5830 5830 5829 5828 5828 5827 5827 5826 5826 5825 5825 5824 5824 5823 5823 5823 5822 5822 5822 5822 5821 5821 5820 5820 5820 5819 5819 5819
5832 5833 5833 5832 5831 5831 5831 5830 5831 5830 5829 5829 5829 5829 5828 5828 5828 5828 5828 5827 5827 5827 5826 5826 5825 5825 5824 5823 5823 5822 5822 5821 5821 5820 5820 5820 5819 5819 5819 5818 5818 5817 5817 5816 5816 5816 5815 5815 5814
5828 5828 5828 5828 5827 5827 5827 5827 5827 5826 5826 5825 5825 5825 5825 5824 5824 5824 5824 5824 5823 5823 5823 5822 5821 5821 5820 5820 5819 5818 5818 5817 5817 5817 5816 5816 5816 5815 5815 5814 5814 5813 5813 5812 5812 5811 5811 5810 5810
5824 5824 5824 5824 5823 5823 5823 5822 5823 5822 5821 5821 5821 5820 5820 5820 5820 5819 5819 5819 5819 5819 5818 5818 5817 5817 5816 5816 5815 5814 5814 5813 5813 5813 5812 5812 5811 5811 5811 5810 5810 5809 5808 5808 5807 5806 5806 5805 5805
5820 5820 5819 5819 5819 5819 5818 5820 5818 5818 5817 5817 5816 5816 5816 5815 5815 5815 5814 5814 5814 5814 5813 5813 5812 5812 5811 5811 5810 5810 5809 5809 5808 5808 5807 5807 5807 5806 5806 5806 5805 5804 5804 5803 5802 5801 5801 5800 5799
5815 5815 5815 5815 5814 5813 5813 5817 5813 5813 5812 5812 5812 5811 5810 5810 5809 5809 5809 5809 5808 5808 5808 5807 5807 5806 5806 5806 5805 5804 5804 5804 5803 5803 5802 5802 5802 5801 5801 5800 5800 5799 5798 5797 5797 5796 5795 5794 5794